Hourly Data Report for September 10, 2017

All times are specified in Local Standard Time (LST). Add 1 hour to adjust for Daylight Saving Time where and when it is observed.

KITCHENER/WATERLOO
ONTARIO

43°27'39.000" N
80°22'43.000" W
321.60 m
6144239
71368
YKF

Download Data

Hourly Data (September 2017)
Hourly Data Report for September 10, 2017
Temp Definition
°C
Dew Point Temp Definition
°C
Rel Hum Definition
%
Wind Dir Definition
10's deg

Wind Spd Definition
km/h
Visibility Definition
km
Stn Press Definition
kPa
Hmdx Definition


Wind Chill Definition


Weather Definition


TIME
00:00 Legend Double Dagger 5.5 4.9 96 32 4 16.1 99.25     LegendNANA
01:00 Legend Double Dagger 5.0 4.6 97 33 4 16.1 99.27     LegendNANA
02:00 Legend Double Dagger 4.8 4.4 97 31 4 11.3 99.28     LegendNANA
03:00 Legend Double Dagger 4.8 4.5 98   0 16.1 99.29     LegendNANA
04:00 Legend Double Dagger 4.7 4.4 98 1 4 16.1 99.30     LegendNANA
05:00 Legend Double Dagger 3.9 3.8 99 34 4 12.9 99.34     LegendNANA
06:00 Legend Double Dagger 3.1 3.0 99 31 4 16.1 99.40     LegendNANA
07:00 Legend Double Dagger 5.3 5.2 99 30 4 16.1 99.45     LegendNANA
08:00 Legend Double Dagger 9.7 7.8 88   0 16.1 99.48     LegendNANA
09:00 Legend Double Dagger 13.8 8.1 68 6 8 16.1 99.51     LegendNANA
10:00 Legend Double Dagger 15.6 6.9 56 LegendMM 8 16.1 99.50     LegendNANA
11:00 Legend Double Dagger 17.2 6.5 49 LegendMM 8 16.1 99.45     LegendNANA
12:00 Legend Double Dagger 17.6 5.4 44 LegendMM 9 16.1 99.42     LegendNANA
13:00 Legend Double Dagger 18.1 6.0 45 LegendMM 4 16.1 99.38     LegendNANA
14:00 Legend Double Dagger 18.8 6.2 43 LegendMM 4 16.1 99.31     LegendNANA
15:00 Legend Double Dagger 19.6 7.0 44 9 11 16.1 99.24     LegendNANA
16:00 Legend Double Dagger 19.5 7.0 44 7 11 16.1 99.21     LegendNANA
17:00 Legend Double Dagger 19.0 7.1 45 13 8 16.1 99.20     LegendNANA
18:00 Legend Double Dagger 17.0 9.8 62 12 5 16.1 99.20     LegendNANA
19:00 Legend Double Dagger 12.4 8.9 79 12 9 16.1 99.21     LegendNANA
20:00 Legend Double Dagger 11.2 8.8 85 7 5 16.1 99.22     LegendNANA
21:00 Legend Double Dagger 9.4 8.0 91 19 4 16.1 99.24     LegendNANA
22:00 Legend Double Dagger 9.2 7.5 89 7 8 16.1 99.22     LegendNANA
23:00 Legend Double Dagger 6.7 5.9 94 LegendMM 4 16.1 99.23     LegendNANA

Notes on Data Quality.

Legend

  • E = Estimated
  • M = Missing
  • NA = Not Available
  • ‡ = Partner data that is not subject to review by the National Climate Archives
Date modified: